Buena Park, CA

7:28 AM PST on February 07, 2016 (GMT -0800)
Fullerton Municipal

Weather History for KFUL - May, 2009

Change the Weather History Date:

Saturday, May 9, 2009

  Actual Average Record
Temperature  
Mean Temperature 68 °F 66 °F  
Max Temperature 76 °F 75 °F 87 °F (2007)
Min Temperature 60 °F 57 °F 51 °F (2003)
Degree Days  
Heating Degree Days 0 1  
Month to date heating degree days 1 14  
Since 1 July heating degree days 995 1208  
Cooling Degree Days 3 2  
Month to date cooling degree days 37 18  
Year to date cooling degree days 122 70  
Growing Degree Days 18 (Base 50)    
Moisture  
Dew Point 55 °F    
Average Humidity 67    
Maximum Humidity 84    
Minimum Humidity 50    
Precipitation  
Precipitation 0.00 in 0.02 in 0.04 in (2011)
Month to date precipitation T 0.14  
Year to date precipitation 5.38 9.45  
Since 1 July precipitation 10.01  
Snow  
Snow 0.00 in - - ()
Month to date snowfall 0.0  
Year to date snowfall 0.0  
Since 1 July snowfall 0.0  
Snow Depth 0.00 in    
Sea Level Pressure  
Sea Level Pressure 29.87 in    
Wind  
Wind Speed 5 mph (SSW)    
Max Wind Speed 12 mph    
Max Gust Speed 17 mph    
Visibility 7 miles    
Events      
T = Trace of Precipitation, MM = Missing Value Source: NWS Daily Summary

Daily Weather History Graph

Daily Weather History Graph

Search for Another Location

Airport or City:

Trip Planner

Search our weather history database for the weather conditions in past years. The results will help you decide how hot, cold, wet, or windy it might be!

Date:

Astronomy

May. 09, 2009 Rise Set
Actual Time 5:55 AM PDT 7:41 PM PDT
Civil Twilight 5:28 AM PDT 8:09 PM PDT
Nautical Twilight 4:55 AM PDT 8:42 PM PDT
Astronomical Twilight 4:20 AM PDT 9:16 PM PDT
Moon 8:43 PM PDT (5/9) 5:53 AM PDT (5/9)
Length of Visible Light 14h 41m
Length of Day
13h 46m
Full, 100% of the Moon is Illuminated
May 9
Full
May 17
Last Quarter
May 24
New
May 30
First Quarter
Jun 7
Full

Hourly Weather History & Observations

Time (PDT) Temp. Dew Point Humidity Pressure Visibility Wind Dir Wind Speed Gust Speed Precip Events Conditions
12:53 AM 60.1 °F 55.9 °F 86% 29.82 in 7.0 mi SSW 4.6 mph - N/A   Partly Cloudy
1:13 AM 60.8 °F 55.4 °F 82% 29.82 in 6.0 mi Calm Calm - N/A   Mostly Cloudy
1:53 AM 61.0 °F 55.9 °F 83% 29.81 in 6.0 mi South 3.5 mph - N/A   Haze
2:53 AM 61.0 °F 55.9 °F 83% 29.82 in 6.0 mi SSW 3.5 mph - N/A   Haze
3:53 AM 61.0 °F 55.9 °F 83% 29.83 in 6.0 mi SSW 4.6 mph - N/A   Haze
4:22 AM 60.8 °F 55.4 °F 82% 29.83 in 6.0 mi South 3.5 mph - N/A   Overcast
4:53 AM 60.1 °F 55.9 °F 86% 29.83 in 6.0 mi Calm Calm - N/A   Overcast
5:53 AM 61.0 °F 55.9 °F 83% 29.85 in 6.0 mi Calm Calm - N/A   Haze
6:53 AM 61.0 °F 55.9 °F 83% 29.86 in 5.0 mi North 3.5 mph - N/A   Haze
7:17 AM 60.8 °F 55.4 °F 82% 29.87 in 5.0 mi Calm Calm - N/A   Haze
7:39 AM 62.6 °F 55.4 °F 77% 29.88 in 5.0 mi Calm Calm - N/A   Haze
7:53 AM 62.1 °F 55.9 °F 80% 29.88 in 5.0 mi North 3.5 mph - N/A   Haze
8:53 AM 64.0 °F 55.9 °F 75% 29.90 in 7.0 mi Calm Calm - N/A   Overcast
9:42 AM 66.2 °F 55.4 °F 68% 29.89 in 7.0 mi Calm Calm - N/A   Overcast
9:53 AM 64.9 °F 55.0 °F 70% 29.89 in 7.0 mi Calm Calm - N/A   Mostly Cloudy
10:15 AM 68.0 °F 55.4 °F 64% 29.89 in 7.0 mi South 3.5 mph - N/A   Scattered Clouds
10:53 AM 71.1 °F 55.0 °F 57% 29.88 in 8.0 mi Calm Calm - N/A   Clear
11:53 AM 75.0 °F 55.9 °F 51% 29.88 in 10.0 mi Variable 5.8 mph - N/A   Clear
12:53 PM 73.0 °F 55.9 °F 55% 29.88 in 10.0 mi SSW 9.2 mph - N/A   Clear
1:53 PM 73.0 °F 55.0 °F 53% 29.88 in 10.0 mi SW 10.4 mph - N/A   Clear
2:53 PM 71.1 °F 54.0 °F 55% 29.88 in 10.0 mi SW 8.1 mph - N/A   Clear
3:53 PM 71.1 °F 55.0 °F 57% 29.86 in 10.0 mi South 8.1 mph - N/A   Clear
4:53 PM 70.0 °F 54.0 °F 57% 29.85 in 10.0 mi South 8.1 mph - N/A   Clear
5:53 PM 68.0 °F 55.0 °F 63% 29.85 in 9.0 mi SSW 6.9 mph - N/A   Clear
6:53 PM 66.0 °F 55.0 °F 68% 29.86 in 9.0 mi South 8.1 mph - N/A   Clear
7:53 PM 63.0 °F 55.0 °F 75% 29.87 in 8.0 mi South 4.6 mph - N/A   Clear
8:53 PM 62.1 °F 55.0 °F 78% 29.88 in 9.0 mi South 4.6 mph - N/A   Clear
9:53 PM 61.0 °F 55.0 °F 81% 29.89 in 8.0 mi South 5.8 mph - N/A   Clear
10:37 PM 60.8 °F 55.4 °F 82% 29.90 in 7.0 mi SSW 3.5 mph - N/A   Mostly Cloudy
10:53 PM 61.0 °F 55.0 °F 81% 29.90 in 7.0 mi SW 3.5 mph - N/A   Overcast
11:53 PM 62.1 °F 55.0 °F 78% 29.90 in 8.0 mi SE 5.8 mph - N/A   Overcast